Tracking 29892 objects as of 21-Nov-2024
HD Live streaming from Space Station
objects crossing your sky now

STARLINK-3281

Track STARLINK-3281 now!
10-day predictions
STARLINK-3281 is classified as:


NORAD ID: 50183
Int'l Code: 2021-125AD
Perigee: 545.7 km
Apogee: 548.0 km
Inclination: 53.2 °
Period: 95.4 minutes
Semi major axis: 6917 km
RCS: Unknown
Launch date: December 18, 2021
Source: United States (US)
Launch site: AIR FORCE WESTERN TEST RANGE (AFWTR)
Your satellite tracking list
Your tracking list is empty




NASA's NSSDC Master Catalog

Two Line Element Set (TLE):
1 50183U 21125AD  24325.12205043  .00001481  00000-0  11112-3 0  9994
2 50183  53.2174 219.5329 0001640 104.3771 255.7403 15.08848153165007
Source of the keplerian elements: AFSPC